| time (UTC) | temp C | wind direction | speed KPH | gust KPH | rain 1hr cm | rain 24hr cm | rain mn cm | humidity % | barometer mb |
| 20260507232511 | 13 | 247 | 1.6 | 8.0 | 0.00 | 0.05 | 0.00 | 36 | 1004.9 |
| 20260507232014 | 13 | 266 | 3.2 | 8.0 | 0.00 | 0.05 | 0.00 | 35 | 1004.9 |
| 20260507231532 | 13 | 0 | 0.0 | 8.0 | 0.00 | 0.05 | 0.00 | 36 | 1005.0 |
| 20260507231011 | 13 | 0 | 1.6 | 11.3 | 0.00 | 0.05 | 0.00 | 35 | 1004.8 |
| 20260507230509 | 13 | 283 | 1.6 | 11.3 | 0.00 | 0.05 | 0.00 | 35 | 1004.8 |
| 20260507230031 | 14 | 0 | 3.2 | 9.7 | 0.00 | 0.05 | 0.00 | 36 | 1004.8 |
| 20260507225508 | 14 | 314 | 0.0 | 8.0 | 0.00 | 0.05 | 0.00 | 35 | 1004.8 |
| 20260507225010 | 14 | 317 | 1.6 | 8.0 | 0.00 | 0.05 | 0.00 | 35 | 1004.8 |
| 20260507224532 | 14 | 0 | 0.0 | 6.4 | 0.00 | 0.05 | 0.00 | 35 | 1004.8 |
| 20260507224009 | 14 | 279 | 1.6 | 9.7 | 0.00 | 0.05 | 0.00 | 35 | 1004.7 |
| 20260507223510 | 14 | 255 | 1.6 | 14.5 | 0.00 | 0.05 | 0.00 | 36 | 1004.6 |
| 20260507223031 | 14 | 268 | 4.8 | 14.5 | 0.00 | 0.05 | 0.00 | 33 | 1004.6 |
| 20260507222510 | 14 | 262 | 3.2 | 16.1 | 0.00 | 0.05 | 0.00 | 33 | 1004.5 |
| 20260507222009 | 15 | 263 | 6.4 | 16.1 | 0.00 | 0.05 | 0.00 | 34 | 1004.4 |
| 20260507221534 | 15 | 248 | 4.8 | 17.7 | 0.00 | 0.05 | 0.00 | 33 | 1004.4 |
| 20260507221011 | 15 | 317 | 8.0 | 17.7 | 0.00 | 0.05 | 0.00 | 32 | 1004.4 |
| 20260507220508 | 15 | 0 | 0.0 | 16.1 | 0.00 | 0.05 | 0.00 | 33 | 1004.3 |
| 20260507220037 | 15 | 341 | 8.0 | 16.1 | 0.00 | 0.05 | 0.00 | 36 | 1004.3 |
| 20260507215509 | 15 | 286 | 1.6 | 6.4 | 0.00 | 0.15 | 0.00 | 33 | 1004.3 |
| 20260507215013 | 15 | 0 | 1.6 | 14.5 | 0.00 | 0.15 | 0.00 | 35 | 1004.4 |
| 20260507214530 | 15 | 257 | 3.2 | 14.5 | 0.00 | 0.15 | 0.00 | 33 | 1004.4 |
| 20260507214008 | 16 | 257 | 3.2 | 12.9 | 0.00 | 0.15 | 0.00 | 32 | 1004.3 |
| 20260507213510 | 16 | 0 | 4.8 | 12.9 | 0.00 | 0.15 | 0.00 | 37 | 1004.2 |
| 20260507213033 | 16 | 343 | 4.8 | 12.9 | 0.00 | 0.15 | 0.00 | 32 | 1004.3 |
| 20260507212508 | 16 | 0 | 0.0 | 12.9 | 0.00 | 0.15 | 0.00 | 31 | 1004.2 |
| 20260507212014 | 16 | 0 | 3.2 | 22.5 | 0.00 | 0.15 | 0.00 | 34 | 1004.3 |
| 20260507211537 | 17 | 77 | 6.4 | 22.5 | 0.00 | 0.15 | 0.00 | 30 | 1004.2 |
| 20260507211010 | 17 | 354 | 3.2 | 12.9 | 0.00 | 0.15 | 0.00 | 33 | 1004.2 |
| 20260507210509 | 17 | 0 | 1.6 | 12.9 | 0.00 | 0.15 | 0.00 | 32 | 1004.0 |
| 20260507210031 | 16 | 0 | 0.0 | 12.9 | 0.00 | 0.15 | 0.00 | 34 | 1004.0 |
| 20260507205512 | 16 | 0 | 1.6 | 14.5 | 0.00 | 0.30 | 0.00 | 35 | 1004.0 |
| 20260507205009 | 16 | 0 | 3.2 | 19.3 | 0.00 | 0.30 | 0.00 | 32 | 1004.0 |
| 20260507204529 | 16 | 296 | 1.6 | 19.3 | 0.00 | 0.30 | 0.00 | 32 | 1003.8 |
| 20260507204014 | 16 | 260 | 6.4 | 19.3 | 0.00 | 0.30 | 0.00 | 31 | 1003.8 |
| 20260507203516 | 17 | 243 | 9.7 | 19.3 | 0.00 | 0.30 | 0.00 | 28 | 1003.9 |
| 20260507203032 | 18 | 268 | 6.4 | 17.7 | 0.00 | 0.30 | 0.00 | 29 | 1003.9 |
| 20260507202511 | 17 | 349 | 4.8 | 16.1 | 0.00 | 0.30 | 0.00 | 36 | 1003.9 |
| 20260507202014 | 17 | 246 | 6.4 | 16.1 | 0.00 | 0.30 | 0.00 | 31 | 1003.9 |
| 20260507201532 | 17 | 247 | 6.4 | 11.3 | 0.00 | 0.30 | 0.00 | 31 | 1003.9 |
| 20260507201008 | 17 | 335 | 3.2 | 20.9 | 0.00 | 0.30 | 0.00 | 30 | 1004.0 |
| 20260507200510 | 18 | 0 | 1.6 | 20.9 | 0.00 | 0.30 | 0.00 | 31 | 1004.2 |
| 20260507200034 | 17 | 289 | 6.4 | 20.9 | 0.00 | 0.30 | 0.00 | 34 | 1004.1 |
| 20260507195510 | 17 | 0 | 1.6 | 16.1 | 0.00 | 0.41 | 0.00 | 36 | 1004.2 |
| 20260507195014 | 17 | 286 | 4.8 | 16.1 | 0.00 | 0.41 | 0.00 | 32 | 1004.1 |
| 20260507194546 | 17 | 0 | 0.0 | 12.9 | 0.00 | 0.41 | 0.00 | 36 | 1004.1 |
| 20260507194008 | 17 | 0 | 0.0 | 12.9 | 0.00 | 0.41 | 0.00 | 38 | 1004.3 |
| 20260507193516 | 17 | 250 | 1.6 | 12.9 | 0.00 | 0.41 | 0.00 | 36 | 1004.3 |
| 20260507193030 | 17 | 359 | 3.2 | 16.1 | 0.00 | 0.41 | 0.00 | 37 | 1004.3 |
| 20260507192511 | 18 | 345 | 6.4 | 16.1 | 0.00 | 0.41 | 0.00 | 34 | 1004.3 |
| 20260507192012 | 18 | 0 | 0.0 | 0.0 | 0.00 | 0.41 | 0.00 | 34 | 1004.2 |
| 20260507191528 | 18 | 0 | 0.0 | 8.0 | 0.00 | 0.41 | 0.00 | 39 | 1004.3 |
| 20260507191014 | 18 | 0 | 0.0 | 14.5 | 0.00 | 0.41 | 0.00 | 34 | 1004.3 |
| 20260507190509 | 17 | 338 | 3.2 | 14.5 | 0.00 | 0.41 | 0.00 | 34 | 1004.6 |
| 20260507190042 | 18 | 303 | 8.0 | 14.5 | 0.00 | 0.41 | 0.00 | 36 | 1004.7 |
| 20260507185511 | 17 | 326 | 3.2 | 14.5 | 0.00 | 0.81 | 0.00 | 35 | 1004.5 |
| 20260507185013 | 17 | 353 | 0.0 | 25.7 | 0.00 | 0.81 | 0.00 | 36 | 1004.5 |
| 20260507184541 | 17 | 274 | 4.8 | 27.4 | 0.00 | 0.81 | 0.00 | 36 | 1004.6 |
| 20260507184008 | 17 | 250 | 8.0 | 27.4 | 0.00 | 0.81 | 0.00 | 34 | 1004.5 |
| 20260507183719 | 18 | 257 | 8.0 | 16.1 | 0.00 | 0.81 | 0.00 | 35 | 1004.6 |
| 20260507182507 | 18 | 0 | 0.0 | 0.0 | 0.00 | 0.81 | 0.00 | 39 | 1004.7 |
| 20260507182015 | 17 | 0 | 0.0 | 0.0 | 0.00 | 0.81 | 0.00 | 37 | 1004.7 |
| 20260507181531 | 17 | 0 | 0.0 | 0.0 | 0.00 | 0.81 | 0.00 | 37 | 1004.7 |
| 20260507181010 | 17 | 0 | 0.0 | 0.0 | 0.00 | 0.81 | 0.00 | 34 | 1004.7 |
| 20260507180511 | 17 | 0 | 0.0 | 11.3 | 0.00 | 0.81 | 0.00 | 35 | 1004.6 |
| 20260507180029 | 17 | 0 | 3.2 | 11.3 | 0.00 | 0.81 | 0.00 | 37 | 1004.7 |
| 20260507175510 | 17 | 0 | 0.0 | 8.0 | 0.00 | 0.81 | 0.00 | 40 | 1004.6 |
| 20260507175010 | 17 | 0 | 0.0 | 14.5 | 0.00 | 0.81 | 0.00 | 36 | 1004.7 |
| 20260507174533 | 17 | 266 | 4.8 | 14.5 | 0.00 | 0.81 | 0.00 | 41 | 1004.6 |
| 20260507174011 | 17 | 236 | 3.2 | 14.5 | 0.00 | 0.81 | 0.00 | 39 | 1004.5 |
| 20260507173517 | 17 | 323 | 3.2 | 16.1 | 0.00 | 0.81 | 0.00 | 43 | 1004.6 |
| 20260507173043 | 16 | 334 | 6.4 | 16.1 | 0.00 | 0.81 | 0.00 | 40 | 1004.6 |
| 20260507172509 | 16 | 323 | 3.2 | 16.1 | 0.00 | 0.81 | 0.00 | 45 | 1004.7 |
| 20260507172009 | 16 | 260 | 4.8 | 19.3 | 0.00 | 0.81 | 0.00 | 39 | 1004.7 |
| 20260507171530 | 16 | 224 | 6.4 | 19.3 | 0.00 | 0.81 | 0.00 | 40 | 1004.8 |
| 20260507171009 | 16 | 0 | 4.8 | 12.9 | 0.00 | 0.81 | 0.00 | 44 | 1004.8 |
| 20260507170511 | 16 | 330 | 4.8 | 16.1 | 0.00 | 0.81 | 0.00 | 44 | 1004.9 |
| 20260507170031 | 15 | 353 | 6.4 | 16.1 | 0.00 | 0.81 | 0.00 | 51 | 1005.0 |
| 20260507165512 | 15 | 0 | 3.2 | 16.1 | 0.00 | 0.81 | 0.00 | 45 | 1005.1 |
| 20260507165013 | 15 | 0 | 0.0 | 19.3 | 0.00 | 0.81 | 0.00 | 48 | 1005.2 |
| 20260507164544 | 14 | 0 | 6.4 | 19.3 | 0.00 | 0.81 | 0.00 | 48 | 1005.1 |
| 20260507164011 | 14 | 239 | 6.4 | 12.9 | 0.00 | 0.81 | 0.00 | 50 | 1005.2 |
| 20260507163512 | 13 | 0 | 1.6 | 19.3 | 0.00 | 0.81 | 0.00 | 53 | 1005.4 |
| 20260507163031 | 13 | 255 | 4.8 | 19.3 | 0.00 | 0.81 | 0.00 | 56 | 1005.4 |
| 20260507162508 | 14 | 262 | 3.2 | 14.5 | 0.00 | 0.81 | 0.00 | 53 | 1005.4 |
| 20260507162016 | 14 | 252 | 3.2 | 14.5 | 0.00 | 0.81 | 0.00 | 54 | 1005.4 |
| 20260507161528 | 15 | 317 | 6.4 | 14.5 | 0.00 | 0.81 | 0.00 | 53 | 1005.4 |
| 20260507161010 | 15 | 0 | 1.6 | 11.3 | 0.00 | 0.81 | 0.00 | 56 | 1005.4 |
| 20260507160512 | 14 | 242 | 3.2 | 12.9 | 0.00 | 0.81 | 0.00 | 56 | 1005.5 |
| 20260507160030 | 14 | 339 | 4.8 | 12.9 | 0.00 | 0.81 | 0.00 | 59 | 1005.6 |
| 20260507155510 | 14 | 264 | 3.2 | 14.5 | 0.00 | 0.81 | 0.00 | 56 | 1005.8 |
| 20260507155014 | 13 | 278 | 6.4 | 14.5 | 0.00 | 0.81 | 0.00 | 55 | 1005.8 |
| 20260507154532 | 13 | 309 | 4.8 | 16.1 | 0.00 | 0.81 | 0.00 | 57 | 1005.9 |
| 20260507154013 | 13 | 251 | 6.4 | 16.1 | 0.00 | 0.81 | 0.00 | 53 | 1005.8 |
| 20260507153513 | 14 | 261 | 3.2 | 16.1 | 0.00 | 0.81 | 0.00 | 54 | 1005.9 |
| 20260507153036 | 14 | 259 | 4.8 | 16.1 | 0.00 | 0.81 | 0.00 | 54 | 1006.0 |
| 20260507152511 | 15 | 255 | 6.4 | 16.1 | 0.00 | 0.81 | 0.00 | 54 | 1006.1 |
| 20260507152010 | 15 | 0 | 1.6 | 12.9 | 0.00 | 0.81 | 0.00 | 55 | 1006.1 |
| 20260507151532 | 15 | 302 | 4.8 | 12.9 | 0.00 | 0.81 | 0.00 | 55 | 1006.1 |
| 20260507151009 | 15 | 157 | 1.6 | 12.9 | 0.00 | 0.81 | 0.00 | 56 | 1006.1 |
| 20260507150509 | 14 | 329 | 3.2 | 11.3 | 0.00 | 0.81 | 0.00 | 55 | 1006.1 |
| 20260507150033 | 14 | 326 | 3.2 | 11.3 | 0.00 | 0.81 | 0.00 | 55 | 1006.0 |
| 20260507145512 | 14 | 339 | 4.8 | 20.9 | 0.00 | 0.81 | 0.00 | 58 | 1006.2 |
| 20260507145016 | 14 | 266 | 9.7 | 20.9 | 0.00 | 0.81 | 0.00 | 54 | 1006.2 |
| 20260507144534 | 15 | 0 | 6.4 | 16.1 | 0.00 | 0.81 | 0.00 | 53 | 1006.2 |
| 20260507144009 | 15 | 256 | 4.8 | 12.9 | 0.00 | 0.81 | 0.00 | 54 | 1006.0 |
| 20260507143512 | 15 | 337 | 4.8 | 12.9 | 0.00 | 0.81 | 0.00 | 55 | 1006.1 |
| 20260507143036 | 15 | 349 | 6.4 | 12.9 | 0.00 | 0.81 | 0.00 | 58 | 1006.0 |
| 20260507142509 | 15 | 295 | 1.6 | 19.3 | 0.00 | 0.81 | 0.00 | 57 | 1006.0 |
| 20260507142008 | 15 | 0 | 0.0 | 19.3 | 0.00 | 0.81 | 0.00 | 59 | 1006.1 |
| 20260507141534 | 15 | 266 | 3.2 | 19.3 | 0.00 | 0.81 | 0.00 | 54 | 1006.0 |
| 20260507141009 | 15 | 0 | 1.6 | 14.5 | 0.00 | 0.81 | 0.00 | 57 | 1006.1 |
| 20260507140512 | 14 | 342 | 3.2 | 17.7 | 0.00 | 0.81 | 0.00 | 58 | 1005.9 |
| 20260507140030 | 14 | 245 | 3.2 | 17.7 | 0.00 | 0.81 | 0.00 | 57 | 1006.0 |
| 20260507135509 | 14 | 310 | 1.6 | 11.3 | 0.00 | 0.81 | 0.00 | 59 | 1006.0 |
| 20260507135015 | 13 | 347 | 4.8 | 11.3 | 0.00 | 0.81 | 0.00 | 59 | 1006.0 |
| 20260507134531 | 13 | 238 | 4.8 | 11.3 | 0.00 | 0.81 | 0.00 | 54 | 1006.1 |
| 20260507134009 | 14 | 238 | 1.6 | 11.3 | 0.00 | 0.81 | 0.00 | 53 | 1006.1 |
| 20260507133511 | 14 | 351 | 1.6 | 11.3 | 0.00 | 0.81 | 0.00 | 60 | 1006.1 |
| 20260507133031 | 14 | 351 | 4.8 | 9.7 | 0.00 | 0.81 | 0.00 | 61 | 1006.2 |
| 20260507132509 | 13 | 0 | 4.8 | 9.7 | 0.00 | 0.81 | 0.00 | 62 | 1006.2 |
| 20260507132009 | 13 | 0 | 1.6 | 9.7 | 0.00 | 0.81 | 0.00 | 61 | 1006.4 |
| 20260507131530 | 13 | 0 | 4.8 | 9.7 | 0.00 | 0.81 | 0.00 | 59 | 1006.3 |
| 20260507131013 | 13 | 0 | 0.0 | 4.8 | 0.00 | 0.81 | 0.00 | 63 | 1006.2 |
| 20260507130517 | 13 | 0 | 0.0 | 12.9 | 0.00 | 0.81 | 0.00 | 66 | 1006.3 |
| 20260507130038 | 13 | 0 | 0.0 | 12.9 | 0.00 | 0.81 | 0.00 | 64 | 1006.3 |
| 20260507125510 | 12 | 356 | 6.4 | 14.5 | 0.00 | 0.81 | 0.00 | 67 | 1006.2 |
| 20260507125012 | 12 | 341 | 3.2 | 14.5 | 0.00 | 0.81 | 0.00 | 67 | 1006.4 |
| 20260507124538 | 12 | 357 | 1.6 | 14.5 | 0.00 | 0.81 | 0.00 | 68 | 1006.4 |
| 20260507124013 | 11 | 0 | 3.2 | 12.9 | 0.00 | 0.81 | 0.00 | 70 | 1006.6 |
| 20260507123517 | 11 | 0 | 1.6 | 12.9 | 0.00 | 0.81 | 0.00 | 71 | 1006.5 |
| 20260507123032 | 11 | 333 | 0.0 | 9.7 | 0.00 | 0.81 | 0.00 | 73 | 1006.5 |
| 20260507122509 | 10 | 303 | 0.0 | 8.0 | 0.00 | 0.81 | 0.00 | 74 | 1006.7 |
| 20260507122013 | 10 | 0 | 0.0 | 0.0 | 0.00 | 0.81 | 0.00 | 78 | 1006.7 |
| 20260507121531 | 10 | 0 | 0.0 | 3.2 | 0.00 | 0.81 | 0.00 | 80 | 1006.6 |
| 20260507121012 | 10 | 0 | 0.0 | 3.2 | 0.00 | 0.81 | 0.00 | 81 | 1006.8 |
| 20260507120514 | 9 | 0 | 0.0 | 4.8 | 0.00 | 0.81 | 0.00 | 83 | 1006.6 |
| 20260507120032 | 8 | 0 | 0.0 | 4.8 | 0.00 | 0.81 | 0.00 | 84 | 1006.6 |
| 20260507115509 | 8 | 0 | 0.0 | 0.0 | 0.00 | 0.81 | 0.00 | 85 | 1006.6 |
| 20260507115017 | 8 | 0 | 0.0 | 0.0 | 0.00 | 0.81 | 0.00 | 86 | 1006.6 |
| 20260507114554 | 8 | 0 | 0.0 | 0.0 | 0.00 | 0.81 | 0.00 | 86 | 1006.6 |
| 20260507114014 | 8 | 0 | 0.0 | 0.0 | 0.00 | 0.81 | 0.00 | 86 | 1006.6 |
| 20260507113510 | 8 | 0 | 0.0 | 0.0 | 0.00 | 0.81 | 0.00 | 86 | 1006.6 |
| 20260507113057 | 8 | 0 | 0.0 | 0.0 | 0.00 | 0.81 | 0.00 | 86 | 1006.6 |
| 20260507112510 | 8 | 0 | 0.0 | 0.0 | 0.00 | 0.81 | 0.00 | 86 | 1006.7 |
| 20260507112013 | 8 | 0 | 0.0 | 0.0 | 0.00 | 0.81 | 0.00 | 86 | 1006.5 |
| 20260507111538 | 8 | 0 | 0.0 | 0.0 | 0.00 | 0.81 | 0.00 | 86 | 1006.5 |
| 20260507111010 | 8 | 0 | 0.0 | 0.0 | 0.00 | 0.81 | 0.00 | 87 | 1006.3 |
| 20260507110510 | 8 | 0 | 0.0 | 0.0 | 0.00 | 0.81 | 0.00 | 87 | 1006.3 |
| 20260507110032 | 8 | 0 | 0.0 | 0.0 | 0.00 | 0.81 | 0.00 | 87 | 1006.2 |
| 20260507105511 | 8 | 0 | 0.0 | 0.0 | 0.00 | 0.81 | 0.00 | 87 | 1006.5 |
| 20260507105011 | 8 | 0 | 0.0 | 0.0 | 0.00 | 0.81 | 0.00 | 87 | 1006.5 |
| 20260507104539 | 8 | 0 | 0.0 | 0.0 | 0.00 | 0.81 | 0.00 | 87 | 1006.5 |
| 20260507104010 | 7 | 0 | 0.0 | 0.0 | 0.00 | 0.81 | 0.00 | 86 | 1006.3 |
| 20260507103512 | 7 | 0 | 0.0 | 0.0 | 0.00 | 0.81 | 0.00 | 86 | 1006.5 |
| 20260507103031 | 8 | 0 | 0.0 | 0.0 | 0.00 | 0.81 | 0.00 | 86 | 1006.4 |
| 20260507102510 | 8 | 0 | 0.0 | 0.0 | 0.00 | 0.81 | 0.00 | 86 | 1006.4 |
| 20260507102015 | 8 | 0 | 0.0 | 0.0 | 0.00 | 0.81 | 0.00 | 87 | 1006.2 |
| 20260507101532 | 8 | 0 | 0.0 | 0.0 | 0.00 | 0.81 | 0.00 | 87 | 1006.5 |
| 20260507101010 | 8 | 0 | 0.0 | 0.0 | 0.00 | 0.81 | 0.00 | 86 | 1006.7 |
| 20260507100510 | 8 | 0 | 0.0 | 0.0 | 0.00 | 0.81 | 0.00 | 86 | 1006.7 |
| 20260507100030 | 8 | 0 | 0.0 | 0.0 | 0.00 | 0.81 | 0.00 | 86 | 1006.6 |
| 20260507095510 | 8 | 0 | 0.0 | 0.0 | 0.00 | 0.81 | 0.00 | 86 | 1006.4 |
| 20260507095009 | 8 | 0 | 0.0 | 0.0 | 0.00 | 0.81 | 0.00 | 86 | 1006.5 |
| 20260507094533 | 8 | 0 | 0.0 | 0.0 | 0.00 | 0.81 | 0.00 | 86 | 1006.2 |
| 20260507094009 | 8 | 0 | 0.0 | 0.0 | 0.00 | 0.81 | 0.00 | 86 | 1006.2 |
| 20260507093517 | 8 | 0 | 0.0 | 0.0 | 0.00 | 0.81 | 0.00 | 86 | 1006.2 |
| 20260507093034 | 8 | 0 | 0.0 | 0.0 | 0.00 | 0.81 | 0.00 | 86 | 1006.3 |
| 20260507092515 | 8 | 0 | 0.0 | 0.0 | 0.00 | 0.81 | 0.00 | 86 | 1006.4 |
| 20260507092014 | 8 | 0 | 0.0 | 0.0 | 0.00 | 0.81 | 0.00 | 86 | 1006.3 |
| 20260507091531 | 8 | 0 | 0.0 | 0.0 | 0.00 | 0.81 | 0.00 | 86 | 1006.2 |
| 20260507091010 | 8 | 0 | 0.0 | 4.8 | 0.00 | 0.81 | 0.00 | 86 | 1006.1 |
| 20260507090512 | 8 | 0 | 0.0 | 4.8 | 0.00 | 0.81 | 0.00 | 86 | 1006.1 |
| 20260507090032 | 8 | 312 | 0.0 | 8.0 | 0.00 | 0.81 | 0.00 | 86 | 1005.9 |
| 20260507085509 | 8 | 313 | 1.6 | 8.0 | 0.00 | 0.81 | 0.00 | 86 | 1005.6 |
| 20260507085013 | 8 | 313 | 1.6 | 8.0 | 0.00 | 0.81 | 0.00 | 87 | 1005.8 |
| 20260507084540 | 8 | 0 | 0.0 | 0.0 | 0.00 | 0.81 | 0.00 | 87 | 1005.6 |
| 20260507084011 | 8 | 0 | 0.0 | 8.0 | 0.00 | 0.81 | 0.00 | 87 | 1005.9 |
| 20260507083510 | 8 | 0 | 0.0 | 8.0 | 0.00 | 0.81 | 0.00 | 87 | 1005.7 |
| 20260507083030 | 8 | 311 | 3.2 | 8.0 | 0.00 | 0.81 | 0.00 | 87 | 1005.5 |
| 20260507082513 | 8 | 0 | 0.0 | 6.4 | 0.00 | 0.81 | 0.00 | 87 | 1005.7 |
| 20260507082014 | 8 | 303 | 1.6 | 8.0 | 0.00 | 0.81 | 0.00 | 87 | 1005.4 |
| 20260507081536 | 8 | 303 | 1.6 | 8.0 | 0.00 | 0.81 | 0.00 | 87 | 1005.7 |
| 20260507081011 | 8 | 0 | 0.0 | 6.4 | 0.00 | 0.81 | 0.00 | 87 | 1005.9 |
| 20260507080515 | 8 | 0 | 0.0 | 6.4 | 0.00 | 0.81 | 0.00 | 87 | 1005.9 |
| 20260507080030 | 8 | 0 | 0.0 | 6.4 | 0.00 | 0.81 | 0.00 | 87 | 1005.9 |
| 20260507075512 | 8 | 290 | 0.0 | 8.0 | 0.00 | 0.81 | 0.00 | 87 | 1005.6 |
| 20260507075014 | 8 | 290 | 3.2 | 8.0 | 0.00 | 0.81 | 0.00 | 88 | 1005.5 |
| 20260507074532 | 8 | 288 | 3.2 | 9.7 | 0.00 | 0.81 | 0.00 | 88 | 1005.4 |
| 20260507074009 | 8 | 309 | 3.2 | 12.9 | 0.00 | 0.81 | 0.00 | 88 | 1005.3 |
| 20260507073512 | 8 | 329 | 0.0 | 12.9 | 0.00 | 0.81 | 0.00 | 89 | 1005.4 |
| 20260507073029 | 8 | 295 | 4.8 | 12.9 | 0.00 | 0.81 | 0.00 | 89 | 1005.4 |
| 20260507072515 | 8 | 321 | 3.2 | 9.7 | 0.00 | 0.81 | 0.00 | 89 | 1005.3 |
| 20260507072011 | 8 | 328 | 1.6 | 9.7 | 0.00 | 0.81 | 0.00 | 89 | 1005.4 |
| 20260507071530 | 8 | 329 | 3.2 | 14.5 | 0.00 | 0.81 | 0.00 | 89 | 1005.3 |
| 20260507071013 | 8 | 330 | 3.2 | 14.5 | 0.00 | 0.81 | 0.00 | 89 | 1005.2 |
| 20260507070511 | 8 | 307 | 3.2 | 8.0 | 0.00 | 0.81 | 0.00 | 90 | 1005.2 |
| 20260507070030 | 9 | 297 | 0.0 | 9.7 | 0.00 | 0.81 | 0.00 | 90 | 1005.5 |
| 20260507065510 | 9 | 0 | 1.6 | 9.7 | 0.00 | 0.81 | 0.00 | 90 | 1005.3 |
| 20260507065013 | 9 | 0 | 0.0 | 9.7 | 0.00 | 0.81 | 0.00 | 90 | 1005.4 |
| 20260507064534 | 9 | 0 | 1.6 | 6.4 | 0.00 | 0.81 | 0.00 | 90 | 1004.9 |
| 20260507064012 | 9 | 0 | 0.0 | 6.4 | 0.00 | 0.81 | 0.00 | 90 | 1005.0 |
| 20260507063517 | 9 | 280 | 0.0 | 9.7 | 0.00 | 0.81 | 0.00 | 90 | 1005.0 |
| 20260507063029 | 9 | 0 | 0.0 | 11.3 | 0.00 | 0.81 | 0.00 | 90 | 1005.2 |
| 20260507062511 | 9 | 250 | 3.2 | 12.9 | 0.00 | 0.81 | 0.00 | 89 | 1005.0 |
| 20260507062016 | 9 | 251 | 1.6 | 12.9 | 0.00 | 0.81 | 0.00 | 89 | 1005.0 |
| 20260507061532 | 9 | 250 | 3.2 | 11.3 | 0.00 | 0.81 | 0.00 | 89 | 1005.2 |
| 20260507061010 | 9 | 253 | 3.2 | 12.9 | 0.00 | 0.81 | 0.00 | 89 | 1005.4 |
| 20260507060509 | 9 | 237 | 3.2 | 12.9 | 0.00 | 0.81 | 0.00 | 90 | 1005.3 |
| 20260507060033 | 9 | 250 | 1.6 | 8.0 | 0.00 | 0.81 | 0.00 | 90 | 1005.1 |
| 20260507055509 | 9 | 251 | 1.6 | 9.7 | 0.00 | 0.81 | 0.00 | 90 | 1005.1 |
| 20260507055018 | 9 | 252 | 1.6 | 9.7 | 0.00 | 0.81 | 0.00 | 90 | 1005.0 |
| 20260507054531 | 9 | 0 | 1.6 | 11.3 | 0.00 | 0.81 | 0.00 | 90 | 1004.8 |
| 20260507054010 | 10 | 0 | 3.2 | 12.9 | 0.00 | 0.81 | 0.00 | 90 | 1004.9 |
| 20260507053511 | 10 | 248 | 3.2 | 12.9 | 0.00 | 0.81 | 0.00 | 90 | 1004.9 |
| 20260507053031 | 10 | 0 | 3.2 | 9.7 | 0.00 | 0.81 | 0.00 | 90 | 1005.0 |
| 20260507052511 | 10 | 245 | 4.8 | 9.7 | 0.00 | 0.81 | 0.00 | 90 | 1005.2 |
| 20260507052011 | 10 | 245 | 1.6 | 11.3 | 0.00 | 0.81 | 0.00 | 90 | 1004.9 |
| 20260507051533 | 10 | 244 | 4.8 | 11.3 | 0.00 | 0.81 | 0.00 | 90 | 1004.9 |
| 20260507051009 | 10 | 238 | 4.8 | 11.3 | 0.00 | 0.81 | 0.00 | 90 | 1004.5 |
| 20260507050512 | 10 | 0 | 0.0 | 0.0 | 0.00 | 0.81 | 0.00 | 91 | 1004.7 |
| 20260507050031 | 10 | 0 | 0.0 | 9.7 | 0.00 | 0.81 | 0.00 | 91 | 1004.7 |
| 20260507045512 | 10 | 0 | 3.2 | 12.9 | 0.00 | 0.81 | 0.00 | 91 | 1005.0 |
| 20260507045015 | 10 | 239 | 3.2 | 12.9 | 0.00 | 0.81 | 0.00 | 91 | 1005.2 |
| 20260507044532 | 10 | 250 | 3.2 | 12.9 | 0.03 | 0.81 | 0.00 | 91 | 1005.1 |
| 20260507044010 | 10 | 0 | 0.0 | 12.9 | 0.03 | 0.81 | 0.00 | 92 | 1004.9 |
| 20260507043514 | 10 | 0 | 0.0 | 6.4 | 0.03 | 0.81 | 0.00 | 92 | 1004.8 |
| 20260507043029 | 10 | 0 | 0.0 | 9.7 | 0.03 | 0.81 | 0.00 | 92 | 1004.9 |
| 20260507042512 | 11 | 0 | 1.6 | 9.7 | 0.03 | 0.81 | 0.00 | 92 | 1004.8 |
| 20260507042014 | 11 | 0 | 0.0 | 9.7 | 0.03 | 0.81 | 0.00 | 92 | 1004.9 |
| 20260507041530 | 11 | 0 | 1.6 | 9.7 | 0.03 | 0.81 | 0.00 | 92 | 1004.8 |
| 20260507041010 | 11 | 0 | 0.0 | 8.0 | 0.03 | 0.81 | 0.00 | 92 | 1004.8 |
| 20260507040510 | 11 | 0 | 0.0 | 8.0 | 0.03 | 0.81 | 0.00 | 92 | 1004.6 |
| 20260507040032 | 12 | 0 | 0.0 | 9.7 | 0.03 | 0.81 | 0.00 | 93 | 1004.6 |
| 20260507035512 | 12 | 281 | 3.2 | 9.7 | 0.03 | 0.81 | 0.81 | 93 | 1004.4 |
| 20260507035010 | 12 | 0 | 3.2 | 9.7 | 0.03 | 0.81 | 0.81 | 93 | 1004.5 |
| 20260507034535 | 12 | 0 | 0.0 | 0.0 | 0.00 | 0.79 | 0.79 | 93 | 1004.7 |
| 20260507034012 | 12 | 0 | 0.0 | 0.0 | 0.00 | 0.79 | 0.79 | 93 | 1004.5 |
| 20260507033511 | 12 | 0 | 0.0 | 9.7 | 0.00 | 0.79 | 0.79 | 93 | 1004.6 |
| 20260507033034 | 13 | 0 | 0.0 | 14.5 | 0.03 | 0.79 | 0.79 | 93 | 1004.6 |
| 20260507032516 | 13 | 0 | 6.4 | 14.5 | 0.03 | 0.79 | 0.79 | 93 | 1004.5 |
| 20260507032014 | 13 | 0 | 0.0 | 11.3 | 0.03 | 0.79 | 0.79 | 94 | 1004.6 |
| 20260507031529 | 13 | 0 | 0.0 | 11.3 | 0.03 | 0.79 | 0.79 | 94 | 1004.5 |
| 20260507031012 | 13 | 0 | 1.6 | 6.4 | 0.03 | 0.79 | 0.79 | 94 | 1004.5 |
| 20260507030517 | 13 | 283 | 0.0 | 6.4 | 0.03 | 0.79 | 0.79 | 94 | 1004.3 |
| 20260507030030 | 13 | 0 | 0.0 | 9.7 | 0.03 | 0.79 | 0.79 | 94 | 1004.3 |
| 20260507025511 | 14 | 0 | 0.0 | 9.7 | 0.03 | 0.79 | 0.79 | 94 | 1004.3 |
| 20260507025015 | 14 | 332 | 1.6 | 9.7 | 0.03 | 0.79 | 0.79 | 94 | 1004.1 |
| 20260507024532 | 15 | 257 | 0.0 | 9.7 | 0.03 | 0.79 | 0.79 | 94 | 1004.0 |
| 20260507024009 | 15 | 0 | 0.0 | 9.7 | 0.03 | 0.79 | 0.79 | 94 | 1004.0 |
| 20260507023513 | 15 | 294 | 4.8 | 9.7 | 0.03 | 0.79 | 0.79 | 94 | 1004.0 |
| 20260507023030 | 15 | 246 | 1.6 | 9.7 | 0.00 | 0.76 | 0.76 | 94 | 1003.9 |
| 20260507022510 | 15 | 241 | 4.8 | 9.7 | 0.00 | 0.76 | 0.76 | 94 | 1003.9 |
| 20260507022015 | 15 | 237 | 3.2 | 9.7 | 0.00 | 0.76 | 0.76 | 94 | 1003.7 |
| 20260507021530 | 15 | 0 | 1.6 | 9.7 | 0.00 | 0.76 | 0.76 | 94 | 1003.7 |
| 20260507021011 | 15 | 221 | 3.2 | 12.9 | 0.00 | 0.76 | 0.76 | 94 | 1003.8 |
| 20260507020513 | 15 | 193 | 3.2 | 12.9 | 0.00 | 0.76 | 0.76 | 94 | 1003.9 |
| 20260507020045 | 15 | 0 | 0.0 | 12.9 | 0.00 | 0.76 | 0.76 | 94 | 1003.8 |
| 20260507015510 | 15 | 233 | 3.2 | 12.9 | 0.00 | 0.76 | 0.76 | 94 | 1004.0 |
| 20260507015009 | 15 | 198 | 1.6 | 9.7 | 0.00 | 0.76 | 0.76 | 94 | 1003.9 |
| 20260507014534 | 15 | 245 | 1.6 | 16.1 | 0.00 | 0.76 | 0.76 | 94 | 1004.1 |
| 20260507014010 | 15 | 250 | 6.4 | 16.1 | 0.00 | 0.76 | 0.76 | 94 | 1004.1 |
| 20260507013508 | 15 | 225 | 1.6 | 12.9 | 0.00 | 0.76 | 0.76 | 94 | 1004.0 |
| 20260507013029 | 15 | 212 | 4.8 | 12.9 | 0.00 | 0.76 | 0.76 | 94 | 1004.0 |
| 20260507012509 | 15 | 228 | 4.8 | 12.9 | 0.00 | 0.76 | 0.76 | 94 | 1004.0 |
| 20260507012009 | 15 | 195 | 3.2 | 9.7 | 0.00 | 0.76 | 0.76 | 94 | 1004.1 |
| 20260507011541 | 15 | 235 | 3.2 | 9.7 | 0.00 | 0.76 | 0.76 | 94 | 1004.0 |
| 20260507011010 | 15 | 201 | 3.2 | 11.3 | 0.00 | 0.76 | 0.76 | 94 | 1004.0 |
| 20260507010513 | 15 | 269 | 1.6 | 11.3 | 0.00 | 0.76 | 0.76 | 94 | 1004.1 |
| 20260507010034 | 15 | 197 | 3.2 | 11.3 | 0.00 | 0.76 | 0.76 | 94 | 1004.0 |
| 20260507005511 | 15 | 197 | 3.2 | 12.9 | 0.00 | 0.76 | 0.76 | 94 | 1004.0 |
| 20260507005010 | 15 | 196 | 4.8 | 12.9 | 0.00 | 0.76 | 0.76 | 94 | 1004.0 |
| 20260507004531 | 15 | 227 | 3.2 | 9.7 | 0.00 | 0.76 | 0.76 | 94 | 1004.2 |
| 20260507004010 | 15 | 0 | 3.2 | 9.7 | 0.00 | 0.76 | 0.76 | 94 | 1004.0 |
| 20260507003515 | 15 | 249 | 0.0 | 12.9 | 0.00 | 0.76 | 0.76 | 94 | 1004.1 |
| 20260507003030 | 15 | 0 | 4.8 | 12.9 | 0.00 | 0.76 | 0.76 | 94 | 1004.0 |
| 20260507002509 | 15 | 205 | 4.8 | 11.3 | 0.00 | 0.76 | 0.76 | 94 | 1004.1 |
| 20260507002015 | 15 | 193 | 4.8 | 17.7 | 0.00 | 0.76 | 0.76 | 94 | 1003.9 |
| 20260507001602 | 15 | 0 | 3.2 | 17.7 | 0.00 | 0.76 | 0.76 | 94 | 1003.9 |
| 20260507001009 | 15 | 224 | 3.2 | 12.9 | 0.00 | 0.76 | 0.76 | 94 | 1003.9 |
| 20260507000514 | 15 | 182 | 4.8 | 12.9 | 0.00 | 0.76 | 0.76 | 94 | 1003.9 |
| 20260507000040 | 15 | 0 | 4.8 | 12.9 | 0.00 | 0.76 | 0.76 | 94 | 1003.9 |
| 20260506235511 | 15 | 256 | 6.4 | 12.9 | 0.00 | 0.76 | 0.76 | 94 | 1003.9 |
| 20260506235014 | 15 | 255 | 4.8 | 12.9 | 0.00 | 0.76 | 0.76 | 94 | 1003.8 |
| 20260506234531 | 15 | 196 | 3.2 | 17.7 | 0.00 | 0.76 | 0.76 | 94 | 1003.8 |
| 20260506234010 | 15 | 271 | 6.4 | 17.7 | 0.00 | 0.76 | 0.76 | 94 | 1003.8 |
| 20260506233510 | 15 | 191 | 4.8 | 17.7 | 0.00 | 0.76 | 0.76 | 94 | 1003.9 |
| 20260506233030 | 15 | 190 | 4.8 | 17.7 | 0.00 | 0.76 | 0.76 | 94 | 1003.8 |